When you browse on this site, cookies collect data to enhance your experience and personalize the content and advertising you see.
Visit our Privacy Policy to learn more. By continuing to use the site, you agree to this use of cookies and data.

Hourly Weather Vorobiha

Today, 6 July, Monday

Time Temperature Precipitation Wind Pressure Humidity
00:00 +16°C° 0 mm 1 mps 741 mmHg 94%
01:00 +16°C° 0 mm 2 mps 741 mmHg 95%
02:00 +15°C° 0 mm 2 mps 741 mmHg 96%
03:00 +16°C° 0 mm 3 mps 741 mmHg 95%
04:00 +17°C° 0 mm 3 mps 741 mmHg 93%
05:00 +17°C° 0 mm 4 mps 741 mmHg 92%
06:00 +19°C° 0 mm 4 mps 741 mmHg 86%
07:00 +21°C° 0 mm 4 mps 741 mmHg 81%
08:00 +22°C° 0 mm 5 mps 741 mmHg 75%
09:00 +23°C° 0 mm 5 mps 741 mmHg 72%
10:00 +26°C° 0 mm 5 mps 741 mmHg 68%
11:00 +27°C° 0 mm 5 mps 741 mmHg 64%
12:00 +27°C° 0.3 mm 5 mps 740 mmHg 66%
13:00 +27°C° 0.3 mm 5 mps 740 mmHg 69%
14:00 +27°C° 0.3 mm 5 mps 740 mmHg 72%
15:00 +27°C° 0.6 mm 4 mps 740 mmHg 77%
16:00 +26°C° 0.6 mm 4 mps 740 mmHg 82%
17:00 +26°C° 0.6 mm 3 mps 741 mmHg 88%
18:00 +25°C° 0.5 mm 3 mps 741 mmHg 90%
19:00 +24°C° 0.5 mm 2 mps 741 mmHg 92%
20:00 +21°C° 0.5 mm 2 mps 741 mmHg 94%
21:00 +21°C° 0.4 mm 2 mps 741 mmHg 95%
22:00 +20°C° 0.4 mm 2 mps 741 mmHg 96%
23:00 +20°C° 0.4 mm 2 mps 740 mmHg 97%

Tomorrow, 7 July, Tuesday

Time Temperature Precipitation Wind Pressure Humidity
00:00 +20°C° 0.1 mm 3 mps 740 mmHg 96%
01:00 +20°C° 0.1 mm 3 mps 740 mmHg 96%
02:00 +19°C° 0.1 mm 3 mps 741 mmHg 96%
03:00 +20°C° 0.1 mm 3 mps 740 mmHg 96%
04:00 +20°C° 0.1 mm 3 mps 740 mmHg 95%
05:00 +20°C° 0.1 mm 3 mps 740 mmHg 95%
06:00 +21°C° 0 mm 3 mps 740 mmHg 91%
07:00 +22°C° 0 mm 3 mps 741 mmHg 87%
08:00 +24°C° 0 mm 3 mps 741 mmHg 84%
09:00 +25°C° 0.4 mm 3 mps 741 mmHg 82%
10:00 +25°C° 0.4 mm 3 mps 740 mmHg 81%
11:00 +26°C° 0.4 mm 3 mps 740 mmHg 79%
12:00 +26°C° 0.7 mm 3 mps 740 mmHg 79%
13:00 +27°C° 0.7 mm 4 mps 740 mmHg 78%
14:00 +27°C° 0.7 mm 4 mps 740 mmHg 78%
15:00 +26°C° 1.4 mm 3 mps 740 mmHg 80%
16:00 +26°C° 1.4 mm 3 mps 740 mmHg 83%
17:00 +25°C° 1.4 mm 2 mps 740 mmHg 86%
18:00 +24°C° 0.5 mm 2 mps 740 mmHg 89%
19:00 +21°C° 0.5 mm 2 mps 740 mmHg 92%
20:00 +21°C° 0.5 mm 1 mps 740 mmHg 95%
21:00 +19°C° 0.5 mm 2 mps 740 mmHg 96%
22:00 +18°C° 0.5 mm 2 mps 740 mmHg 97%
23:00 +17°C° 0.5 mm 2 mps 740 mmHg 98%

Day after tomorrow, 8 July, Wednesday

Time Temperature Precipitation Wind Pressure Humidity
00:00 +17°C° 0.3 mm 2 mps 740 mmHg 98%
01:00 +17°C° 0.3 mm 2 mps 739 mmHg 98%
02:00 +18°C° 0.3 mm 1 mps 739 mmHg 98%
03:00 +18°C° 0.4 mm 1 mps 739 mmHg 98%
04:00 +18°C° 0.4 mm 1 mps 739 mmHg 98%
05:00 +18°C° 0.4 mm 1 mps 740 mmHg 98%
06:00 +17°C° 1 mm 2 mps 740 mmHg 98%
07:00 +17°C° 1 mm 3 mps 740 mmHg 97%
08:00 +17°C° 1 mm 3 mps 740 mmHg 97%
09:00 +16°C° 0.5 mm 3 mps 740 mmHg 97%
10:00 +16°C° 0.5 mm 3 mps 740 mmHg 97%
11:00 +14°C° 0.5 mm 3 mps 741 mmHg 97%
12:00 +14°C° 1.4 mm 3 mps 741 mmHg 97%
13:00 +14°C° 1.4 mm 3 mps 741 mmHg 97%
14:00 +13°C° 1.4 mm 3 mps 741 mmHg 97%
15:00 +13°C° 1.2 mm 3 mps 741 mmHg 98%
16:00 +14°C° 1.2 mm 2 mps 742 mmHg 98%
17:00 +14°C° 1.2 mm 2 mps 742 mmHg 98%
18:00 +14°C° 0.2 mm 2 mps 742 mmHg 98%
19:00 +14°C° 0.2 mm 1 mps 742 mmHg 98%
20:00 +14°C° 0.2 mm 1 mps 742 mmHg 98%
21:00 +13°C° 0 mm 1 mps 743 mmHg 97%
22:00 +13°C° 0 mm 1 mps 743 mmHg 97%
23:00 +12°C° 0 mm 1 mps 743 mmHg 97%

9 July, Thursday

Time Temperature Precipitation Wind Pressure Humidity
00:00 +12°C° 0 mm 1 mps 743 mmHg 97%
01:00 +12°C° 0 mm 1 mps 743 mmHg 96%
02:00 +13°C° 0 mm 1 mps 743 mmHg 96%
03:00 +13°C° 0 mm 1 mps 743 mmHg 95%
04:00 +13°C° 0 mm 1 mps 743 mmHg 94%
05:00 +14°C° 0 mm 1 mps 743 mmHg 94%
06:00 +15°C° 0 mm 1 mps 743 mmHg 91%
07:00 +16°C° 0 mm 1 mps 743 mmHg 88%
08:00 +15°C° 0 mm 0 mps 743 mmHg 85%
09:00 +16°C° 0.2 mm 0 mps 744 mmHg 82%
10:00 +19°C° 0.2 mm 1 mps 744 mmHg 79%
11:00 +20°C° 0.2 mm 1 mps 744 mmHg 76%
12:00 +19°C° 0.2 mm 1 mps 744 mmHg 78%
13:00 +19°C° 0.2 mm 1 mps 744 mmHg 80%
14:00 +19°C° 0.2 mm 1 mps 743 mmHg 82%
15:00 +18°C° 0.8 mm 1 mps 743 mmHg 86%
16:00 +16°C° 0.8 mm 1 mps 744 mmHg 91%
17:00 +16°C° 0.8 mm 1 mps 744 mmHg 95%
18:00 +15°C° 0.5 mm 1 mps 743 mmHg 95%
19:00 +15°C° 0.5 mm 1 mps 743 mmHg 96%
20:00 +14°C° 0.5 mm 1 mps 743 mmHg 96%
21:00 +14°C° 0.5 mm 1 mps 743 mmHg 96%
22:00 +14°C° 0.5 mm 2 mps 743 mmHg 96%
23:00 +14°C° 0.5 mm 2 mps 743 mmHg 96%

10 July, Friday

Time Temperature Precipitation Wind Pressure Humidity
00:00 +13°C° 0.2 mm 3 mps 743 mmHg 96%
01:00 +13°C° 0.2 mm 3 mps 743 mmHg 95%
02:00 +13°C° 0.2 mm 4 mps 743 mmHg 95%
03:00 +12°C° 0 mm 4 mps 743 mmHg 92%
04:00 +12°C° 0 mm 4 mps 743 mmHg 90%
05:00 +12°C° 0 mm 4 mps 743 mmHg 88%
06:00 +13°C° 0 mm 5 mps 743 mmHg 82%
07:00 +14°C° 0 mm 5 mps 743 mmHg 76%
08:00 +16°C° 0 mm 6 mps 743 mmHg 69%
09:00 +17°C° 0 mm 6 mps 743 mmHg 64%
10:00 +19°C° 0 mm 6 mps 743 mmHg 59%
11:00 +20°C° 0 mm 6 mps 743 mmHg 54%
12:00 +20°C° 0.1 mm 6 mps 743 mmHg 56%
13:00 +20°C° 0.1 mm 6 mps 743 mmHg 57%
14:00 +20°C° 0.1 mm 6 mps 743 mmHg 59%
15:00 +20°C° 0.1 mm 5 mps 743 mmHg 61%
16:00 +20°C° 0.1 mm 5 mps 743 mmHg 62%
17:00 +19°C° 0.1 mm 4 mps 743 mmHg 64%
18:00 +18°C° 0 mm 4 mps 743 mmHg 67%
19:00 +17°C° 0 mm 3 mps 743 mmHg 69%
20:00 +14°C° 0 mm 3 mps 744 mmHg 71%
21:00 +13°C° 0 mm 3 mps 744 mmHg 73%
22:00 +12°C° 0 mm 3 mps 744 mmHg 75%
23:00 +11°C° 0 mm 3 mps 744 mmHg 77%

11 July, Saturday

Time Temperature Precipitation Wind Pressure Humidity
00:00 +11°C° 0 mm 3 mps 744 mmHg 78%
01:00 +10°C° 0 mm 2 mps 744 mmHg 80%
02:00 +9°C° 0 mm 2 mps 744 mmHg 81%
03:00 +10°C° 0 mm 2 mps 744 mmHg 80%
04:00 +12°C° 0 mm 2 mps 744 mmHg 80%
05:00 +13°C° 0 mm 2 mps 744 mmHg 79%
06:00 +14°C° 0 mm 3 mps 744 mmHg 76%
07:00 +17°C° 0 mm 4 mps 743 mmHg 72%
08:00 +19°C° 0 mm 4 mps 743 mmHg 69%
09:00 +18°C° 0.3 mm 4 mps 743 mmHg 77%
10:00 +17°C° 0.3 mm 4 mps 743 mmHg 84%
11:00 +15°C° 0.3 mm 4 mps 742 mmHg 92%
12:00 +15°C° 0.3 mm 4 mps 742 mmHg 93%
13:00 +16°C° 0.3 mm 5 mps 742 mmHg 93%
14:00 +16°C° 0.3 mm 5 mps 742 mmHg 94%
15:00 +18°C° 0.2 mm 4 mps 742 mmHg 91%
16:00 +18°C° 0.2 mm 4 mps 742 mmHg 88%
17:00 +19°C° 0.2 mm 4 mps 742 mmHg 84%
18:00 +18°C° 0.1 mm 3 mps 742 mmHg 84%
19:00 +17°C° 0.1 mm 3 mps 742 mmHg 84%
20:00 +16°C° 0.1 mm 2 mps 742 mmHg 84%
21:00 +15°C° 0 mm 2 mps 742 mmHg 85%
22:00 +13°C° 0 mm 3 mps 743 mmHg 85%
23:00 +12°C° 0 mm 3 mps 743 mmHg 86%
Show more